Tracking 17145 objects as of 30-May-2015
HD Live streaming from Space Station

AVUM R/B

Track AVUM R/B now!
10-day predictions
AVUM R/B is classified as:


NORAD ID: 38086
Int'l Code: 2012-006K
Perigee: 257.7 km
Apogee: 829.7 km
Inclination: 69.5 °
Period: 95.4 minutes
Semi major axis: 6914 km
RCS: 4.0982 m2 (large)
Launch date: February 13, 2012
Source: European Space Agency (ESA)

Note: This is a ROCKET BODY
Your satellite tracking list
Your tracking list is empty





NASA's NSSDC Master Catalog

Two Line Element Set (TLE):
1 38086U 12006K   15148.55245000  .00039399  38970-5  26523-3 0  9990
2 38086 069.4853 213.6817 0413588 235.6290 227.7927 15.09882920174132

Source of the keplerian elements: AFSPC

N2YO: 283